Location: ?ejkovice
(49.0137°N, 14.3821°E)
Time: 16:45:31
(UTC+00:00)

ADEOS II - Pass Details

Date: 23 May 2024
Orbit: 795 x 798 km, 98.7° (Epoch: 12 June)

Event Time Altitude Azimuth Distance (km) Brightness Sun altitude
Rises 01:12:02 0° 17° (NNE) 3,313 6.9 -14.3°
Reaches altitude 10° 01:14:25 10° 21° (NNE) 2,378 5.9 -14.1°
Maximum altitude 01:19:36 61° 102° (ESE) 906 2.5 -13.7°
Enters shadow 01:24:13 13° 181° (S) 2,151 3.8 -13.2°
